TimeEDT,TemperatureF,Dew PointF,Humidity,Sea Level PressureIn,VisibilityMPH,Wind Direction,Wind SpeedMPH,Gust SpeedMPH,PrecipitationIn,Events,Conditions,WindDirDegrees,DateUTC
12:53 AM,68.0,63.0,84,30.04,10.0,NNE,6.9,-,N/A,,Clear,30,2012-10-24 04:53:00
2:53 AM,70.0,64.0,81,30.00,10.0,NE,5.8,-,N/A,,Overcast,40,2012-10-24 06:53:00
3:53 AM,70.0,64.0,81,29.99,10.0,ENE,5.8,-,N/A,,Overcast,60,2012-10-24 07:53:00
4:53 AM,71.1,64.9,81,29.99,10.0,ESE,3.5,-,N/A,,Overcast,110,2012-10-24 08:53:00
5:19 AM,70.0,66.0,87,30.00,4.0,NE,5.8,-,0.00,Rain,Light Rain,50,2012-10-24 09:19:00
5:32 AM,70.0,66.0,87,30.00,8.0,NNE,5.8,-,0.00,,Overcast,20,2012-10-24 09:32:00
5:53 AM,70.0,66.9,90,30.00,7.0,NE,4.6,-,0.00,Rain,Light Rain,50,2012-10-24 09:53:00
6:53 AM,70.0,66.9,90,30.00,10.0,NNE,8.1,-,0.01,,Overcast,20,2012-10-24 10:53:00
7:53 AM,71.1,68.0,90,30.02,10.0,NNE,5.8,-,N/A,,Overcast,30,2012-10-24 11:53:00
8:21 AM,72.0,69.1,91,30.03,10.0,NE,6.9,-,N/A,,Overcast,40,2012-10-24 12:21:00
8:53 AM,72.0,69.1,91,30.03,10.0,NNE,6.9,-,N/A,,Overcast,30,2012-10-24 12:53:00
9:53 AM,73.0,69.1,87,30.04,10.0,NE,11.5,-,0.01,,Overcast,40,2012-10-24 13:53:00
10:53 AM,77.0,71.1,82,30.03,10.0,NNE,11.5,-,N/A,,Mostly Cloudy,30,2012-10-24 14:53:00
11:53 AM,82.9,68.0,60,30.03,10.0,ENE,12.7,-,N/A,,Scattered Clouds,60,2012-10-24 15:53:00
12:53 PM,82.0,64.9,56,30.00,10.0,ENE,17.3,-,N/A,,Scattered Clouds,70,2012-10-24 16:53:00
1:53 PM,86.0,64.9,49,29.97,10.0,ENE,17.3,-,N/A,,Partly Cloudy,70,2012-10-24 17:53:00
2:53 PM,86.0,63.0,46,29.95,10.0,ENE,12.7,24.2,N/A,,Partly Cloudy,70,2012-10-24 18:53:00
3:53 PM,84.9,64.0,49,29.94,10.0,NE,18.4,26.5,N/A,,Mostly Cloudy,50,2012-10-24 19:53:00
5:53 PM,82.0,62.1,51,29.94,10.0,ENE,12.7,-,N/A,,Partly Cloudy,70,2012-10-24 21:53:00
6:53 PM,78.1,64.0,62,29.95,10.0,ENE,15.0,-,N/A,,Clear,60,2012-10-24 22:53:00
7:53 PM,75.9,66.0,71,29.96,10.0,ENE,10.4,-,N/A,,Scattered Clouds,60,2012-10-24 23:53:00
9:53 PM,73.0,66.9,81,29.98,10.0,NNE,6.9,-,N/A,,Mostly Cloudy,20,2012-10-25 01:53:00
10:53 PM,72.0,66.9,84,29.96,10.0,North,6.9,-,N/A,,Clear,10,2012-10-25 02:53:00
11:53 PM,71.1,66.9,87,29.96,10.0,North,8.1,-,N/A,,Partly Cloudy,10,2012-10-25 03:53:00